www.pogodaiklimat.ru

Погода и климат >> Архив погоды >> Аргентина >> Санкт-Роза


ПОГОДА в Санкт-Розе

  • Прогноз погоды в Санкт-Розе
  • Монитор погоды в Санкт-Розе

АРХИВ ПОГОДЫ в Санкт-Розе

Время (UTC), дата Ветер
(напр.,м/с)
 
Видим.   Явления Облачность Т
(С)
Тd
(С)
f
(%)
Тe
(С)
Тes
(С)
Комфортность P
(гПа)
Po
(гПа)
Тmin
(С)
Tmax
(С)
R
(мм)
R24
(мм)
S
(см)
18 17.08 Ю 7 30 км 3/0
[Ac As]
+19.7 +1.4 29 +19 +21 1013.5 990.6
21 17.08 Ю 6 30 км 1/0
[Ac As]
+17.6 +2.7 37 +17 +17 1015.2 992.2
00 18.08 Ю 5 30 км ясно +13.4 +2.6 48 +12 +12 1018.4 995.2 +5.1 +20.5
03 18.08 ЮВ 8 30 км 8/0
[Ac As]
+8.7 +4.2 73 +4 +4 1022.4 999.4
06 18.08 Ю 7 30 км 10/10 180 м
[St]
+7.5 +5.5 87 +3 +3 1025.2 1002.2
09 18.08 Ю 5 30 км {морось} 3/3 180 м
[St]
+4.7 +3.0 89 0 0 1027.5 1004.2
12 18.08 Ю 6 30 км {морось} 6/0
[Ac trans Ci sp]
+3.8 +1.8 87 -2 -1 1030.0 1006.5 +3.0 +13.4
15 18.08 ЮВ 7 30 км 9/5 300 м
[St Ac As Cs]
+7.2 +1.6 68 +3 +3 1032.1 1008.5
18 18.08 ЮВ 6 30 км 9/1 300 м
[Sc Ac As Cs]
+9.9 -1.0 47 +7 +9 1030.6 1007.0
21 18.08 ЮВ 4 30 км 6/0
[Ac As Ci sp]
+9.5 -1.2 47 +7 +7 1030.5 1006.9
00 19.08 В 4 30 км 5/0
[Ac As Ci sp]
+5.0 -2.5 58 +2 +2 1032.1 1008.2 +3.8 +10.4
03 19.08 В 3 30 км 9/0
[Ac As Ci sp]
+1.7 -2.7 73 -2 -2 1032.9 1009.0
06 19.08 В 2 30 км 10/5 1350 м
[Sc Ac As]
+0.8 -2.1 81 -3 -3 1032.6 1008.8
09 19.08 СВ 3 30 км 10/9 1350 м
[Sc Ac As]
+1.8 -1.6 78 -2 -2 1031.6 1007.8
12 19.08 С 6 5000 м слаб. снег 10/0
[Ac As]
+2.2 0.0 85 -4 -4 1031.7 1007.7 +0.5 +6.9
15 19.08 С 5 30 км в посл. час дождь 10/6 1200 м
[Sc Ac As]
+2.3 +1.0 91 -3 -3 1031.6 1007.4
18 19.08 В 4 10 км слаб. дождь 10/8 1200 м
[Sc Ac As]
+2.1 +1.3 94 -3 -3 1030.2 1006.1 0.0
21 19.08 В 5 7000 м слаб. дождь 10/8 1200 м
[Sc Ac As]
+1.9 +1.6 98 -4 -4 1029.7 1005.6
00 20.08 СВ 5 8000 м дымка {дождь} 10/10 210 м
[St Ac As]
+2.5 +2.0 96 -3 -3 1030.1 1006.1 +1.5 +2.9 3
03 20.08 СВ 2 8000 м дымка 10/10 180 м
[St]
+2.6 +2.1 97 -1 -1 1031.2 1007.0
06 20.08 В 3 8000 м дымка 10/10 180 м
[St]
+2.6 +1.8 94 -1 -1 1030.5 1006.5
09 20.08 В 3 8000 м дымка 10/10 1200 м
[Sc]
+2.8 +2.0 94 -1 -1 1030.3 1006.2
12 20.08 В 3 9000 м дымка 9/1 90 м
[St Ac As Cs]
+2.7 +2.2 97 -2 -1 1031.3 1007.3 +2.2 +2.8 3
15 20.08 СВ 6 30 км 10/0
[Ac As]
+6.8 +2.5 74 +3 +4 1031.5 1007.6
18 20.08 СВ 6 30 км 10/1 840 м
[Cu hum Ac As Cs]
+9.1 +3.4 67 +6 +7 1030.2 1006.5
21 20.08 СВ 6 30 км 10/0
[Ac As Cs]
+8.9 +3.1 67 +5 +6 1029.0 1005.3
00 21.08 В 6 30 км 10/0
[Ac As Cs]
+6.8 +2.7 75 +3 +3 1030.0 1006.2 +2.7 +10.0
03 21.08 СВ 5 30 км 10/3 1200 м
[Sc Ac As Cs]
+5.9 +3.3 83 +1 +1 1030.1 1006.4
06 21.08 С 7 30 км 10/0
[Ac As Cs]
+5.3 +1.3 75 0 0 1028.8 1005.2
09 21.08 С 7 30 км 1/0
[Ci sp]
+3.8 +1.5 85 -2 -2 1027.1 1003.4
12 21.08 С 7 7000 м дымка 5/0
[Cs]
+3.9 +1.9 87 -2 -2 1027.4 1003.7 +2.1 +6.8
15 21.08 С 9 9000 м дым 10/0
[Ac As Cs]
+8.6 +4.1 73 +4 +5 1026.8 1003.3
18 21.08 С 8 15 км дым 10/0
[Ac As Cs]
+12.0 +4.1 58 +9 +10 1023.7 1000.2
21 21.08 С 6 30 км 10/0
[Ac As Cs]
+12.8 +2.9 51 +11 +11 1023.7 1000.2
00 22.08 СВ 3 30 км 10/0
[Ac As Cs]
+9.0 +3.8 70 +7 +7 1026.2 1002.6 +3.9 +13.5
03 22.08 СВ 2 30 км 10/0
[Ac As Cs]
+7.7 +3.8 76 +6 +6 1027.3 1003.8
06 22.08 С 2 30 км 4/0
[Cs]
+4.3 +3.1 92 +2 +2 1027.6 1004.1
09 22.08 ЮЗ 1 9000 м дымка 4/0
[Cs]
+2.7 +1.9 94 +2 +2 1028.7 1005.2
12 22.08 З 1 2000 м дымка ясно +2.7 +1.7 93 +1 +2 1030.5 1006.8 +1.5 +9.0
15 22.08 Ю 3 30 км ясно +14.4 +5.1 54 +14 +22 1030.0 1006.6
18 22.08 Ю 2 30 км 3/0
[Ci fib]
+18.6 +3.4 36 +19 +27 1027.2 1004.0
21 22.08 С 1 30 км 6/0
[Ci fib]
+18.6 +3.4 36 +20 +20 1026.1 1002.8
00 23.08 СВ 1 30 км 6/0
[Ci fib]
+10.4 +4.2 65 +11 +11 1027.1 1003.4 +2.7 +20.0
03 23.08 С 4 30 км 8/0
[Ci fib]
+9.7 +4.6 71 +7 +7 1026.2 1003.0
06 23.08 С 4 30 км 9/0
[Ci fib]
+8.0 +3.9 75 +5 +5 1025.7 1002.6
09 23.08 С 5 30 км 5/0
[Ci fib]
+6.5 +3.2 79 +3 +3 1023.7 1000.6
12 23.08 С 5 7000 м дым 8/0
[Cs]
+6.5 +3.7 82 +2 +3 1023.4 1000.0 +4.8 +10.4
15 23.08 С 8 9000 м пыльный позёмок 9/0
[Cs]
+17.9 +7.3 50 +17 +19 1021.7 998.8
18 23.08 С 9 8000 м пыльный позёмок 9/0
[Cs]
+18.9 +6.9 46 +18 +19 1019.0 996.1
21 23.08 С 9 10 км пыльный позёмок 9/0
[As trans Cs]
+20.5 +6.4 40 +21 +21 комфорт 1017.1 994.2
00 24.08 СВ 5 30 км 5/0
[Cs]
+13.4 +6.4 63 +12 +12 1018.8 995.7 +6.5 +21.5
03 24.08 С 7 30 км 3/0
[Cs]
+10.3 +6.0 75 +7 +7 1018.5 995.7
06 24.08 С 4 30 км 6/0
[Ac As Cs]
+10.0 +6.2 77 +8 +8 1018.8 996.0
09 24.08 СВ 4 30 км 10/0
[Ac As Cs]
+8.8 +5.7 81 +6 +6 1017.5 994.8
12 24.08 С 5 10 км дымка 4/0
[Ac As Ci fib]
+8.5 +5.9 84 +5 +5 1018.6 995.4 +7.1 +13.9

 

Местоположение метеостанции Санкт-Роза (Аргентина): широта -36.56 долгота -64.26 высота над уровнем моря 191 м.

В архиве по умолчанию представлена погода в Санкт-Розе за последнюю неделю. Архивные данные за месяц целиком и за предыдущие месяцы, начиная с января 2011 года, Вы можете получить, выбрав интересующий диапазон дат из раскрывающегося списка и нажав кнопку "Ввод!".


*Определитесь, кто Вы:
робот инопланетянин человек

Внимание! Время в таблицах - всемирное. Для получения местного времени необходимо прибавить поправку, которая равна -3 ч.

Смотрите также архив погоды в соседних городах и на ближайших метеорологических станциях:

Погода в Хенераль Пико (Аргентина) (106 км)
Погода в Лабоулайе (Аргентина) (282 км)
Погода в Боливаре (Аргентина) (288 км)
Погода в Баия-Бланке (Аргентина) (304 км)
Погода в Вилья Рейнольдс (Аргентина) (331 км)
Погода в Хунине (Аргентина) (377 км)
Погода в Рио-Куарто (Аргентина) (386 км)
Погода в Азуле (Аргентина) (392 км)
Погода в Трес Арройос (Аргентина) (405 км)
Погода в Сан-Луисе (Аргентина) (414 км)

Пояснения к столбцам:

Ветер - указаны скорость ветра в м/с - средняя за 10 мин, порывы в срок и между сроками (в фигурных скобках) и направление, откуда дует ветер: С - северный, СВ - северо-восточный, В - восточный, ЮВ - юго-восточный, Ю - южный, ЮЗ - юго-западный, З - западный, СЗ - северо-западный.
Видимость - горизонтальная дальность видимости в метрах или километрах. При видимости от 1 до 10 км при отсутствии осадков обычно наблюдается дымка, при ухудшении видимости до 1 км и менее - туман. В сухую погоду видимость может ухудшаться дымом, пылью или мглою.
Явления - указаны атмосферные явления, наблюдавшиеся в срок или в последний час перед сроком; фигурными скобками обозначены явления, наблюдавшиеся между сроками (за 1-3 часа до срока); квадратными скобками обозначены град или гололедные отложения с указанием их диаметра в мм.
Облачность - указаны через наклонную черту общая и нижняя облачность в баллах и высота нижней границы облаков в метрах; квадратными скобками обозначены формы облаков: Ci - перистые, Cs - перисто-слоистые, Cc - перисто-кучевые, Ac - высококучевые, As - высокослоистые, Sc - слоисто-кучевые, Ns - слоисто-дождевые, Cu - кучевые, Cb - кучево-дождевые. Подробнее классификацию облаков см. в Атласе облаков (PDF).
T - Температура воздуха - температура, измеренная на высоте 2 м над землей.
Td - Температура точки росы - температура, при понижении до которой содержащийся в воздухе водяной пар достигнет насыщения.
f - Относительная влажность воздуха - влажноcть воздуха, измеренная на высоте 2 м над землей.
Te - Эффективная температура - температура, которую ощущает одетый по сезону человек в тени. Характеристика душности погоды. При расчете учитывается влияние влажности воздуха и скорости ветра на теплоощущения человека.
Tes - Эффективная температура на солнце - температура, которую ощущает человек, с поправкой на солнечный нагрев. Характеристика знойности погоды. Зависит от высоты солнца над горизонтом, облачности и скорости ветра. Ночью, в пасмурную погоду, а также при ветре 12 м/с и более поправка равна нулю.
P - Атмосферное давление - приведенное к уровню моря атмосферное давление.
Po - Атмосферное давление - измеренное на уровне метеостанции атмосферное давление.
Tmin - Минимальная температура - минимум температуры воздуха на высоте 2 м над землей.
Tmax - Максимальная температура - максимум температуры воздуха на высоте 2 м над землей.
R - Количество осадков - Количество выпавших осадков за период времени, мм. При наведении курсора мыши на число - период времени, за который выпало указанное количество осадков.
R24 - Количество осадков - Количество выпавших осадков за 24 часа, мм.
S - Снежный покров - Высота снежного покрова, см. При наведении курсора мыши на число - состояние снежного покрова и степень покрытия местности в баллах.